• In Portugal
  • List of Countries
  • For 7 days
  • Water Temperature
  • Satellite Maps
  • Weather Map
  • Weather Widgets
  • user-avatar
    Login

    Hourly Weather Burdur

    Today, 23 October, Monday

    Time Temperature Precipitation Wind Pressure Humidity
    00:00 +12°C° 0 mm 0 mps 675 mmHg 57%
    01:00 +11°C° 0 mm 0 mps 675 mmHg 58%
    02:00 +11°C° 0 mm 0 mps 674 mmHg 60%
    03:00 +11°C° 0 mm 0 mps 674 mmHg 61%
    04:00 +11°C° 0 mm 1 mps 674 mmHg 63%
    05:00 +11°C° 0 mm 1 mps 674 mmHg 64%
    06:00 +13°C° 0 mm 1 mps 674 mmHg 58%
    07:00 +14°C° 0 mm 1 mps 675 mmHg 53%
    08:00 +16°C° 0 mm 1 mps 675 mmHg 48%
    09:00 +17°C° 0 mm 2 mps 675 mmHg 42%
    10:00 +19°C° 0 mm 2 mps 675 mmHg 37%
    11:00 +20°C° 0 mm 3 mps 675 mmHg 32%
    12:00 +21°C° 0 mm 3 mps 675 mmHg 30%
    13:00 +21°C° 0 mm 4 mps 675 mmHg 29%
    14:00 +22°C° 0 mm 4 mps 675 mmHg 28%
    15:00 +20°C° 0 mm 4 mps 674 mmHg 34%
    16:00 +19°C° 0 mm 3 mps 674 mmHg 40%
    17:00 +18°C° 0 mm 3 mps 673 mmHg 47%
    18:00 +16°C° 0 mm 3 mps 673 mmHg 56%
    19:00 +14°C° 0 mm 3 mps 673 mmHg 66%
    20:00 +14°C° 0 mm 2 mps 673 mmHg 75%
    21:00 +14°C° 0 mm 2 mps 673 mmHg 78%
    22:00 +13°C° 0 mm 2 mps 673 mmHg 82%
    23:00 +13°C° 0 mm 2 mps 673 mmHg 86%

    Tomorrow, 24 October, Tuesday

    Time Temperature Precipitation Wind Pressure Humidity
    00:00 +12°C° 0 mm 3 mps 673 mmHg 86%
    01:00 +12°C° 0 mm 3 mps 673 mmHg 86%
    02:00 +12°C° 0 mm 3 mps 672 mmHg 86%
    03:00 +12°C° 0 mm 3 mps 672 mmHg 86%
    04:00 +12°C° 0 mm 3 mps 672 mmHg 85%
    05:00 +12°C° 0 mm 3 mps 672 mmHg 85%
    06:00 +12°C° 0.1 mm 3 mps 672 mmHg 82%
    07:00 +12°C° 0.1 mm 4 mps 672 mmHg 79%
    08:00 +13°C° 0.1 mm 4 mps 672 mmHg 76%
    09:00 +13°C° 0.1 mm 4 mps 672 mmHg 73%
    10:00 +14°C° 0.1 mm 5 mps 672 mmHg 70%
    11:00 +14°C° 0.1 mm 5 mps 672 mmHg 67%
    12:00 +14°C° 0.3 mm 5 mps 672 mmHg 68%
    13:00 +14°C° 0.3 mm 5 mps 672 mmHg 68%
    14:00 +14°C° 0.3 mm 4 mps 672 mmHg 68%
    15:00 +14°C° 0.9 mm 4 mps 672 mmHg 72%
    16:00 +13°C° 0.9 mm 4 mps 672 mmHg 76%
    17:00 +13°C° 0.9 mm 3 mps 671 mmHg 80%
    18:00 +13°C° 1 mm 3 mps 672 mmHg 83%
    19:00 +12°C° 1 mm 3 mps 672 mmHg 85%
    20:00 +12°C° 1 mm 3 mps 672 mmHg 87%
    21:00 +13°C° 2.9 mm 2 mps 672 mmHg 87%
    22:00 +13°C° 2.9 mm 2 mps 672 mmHg 88%
    23:00 +13°C° 2.9 mm 2 mps 673 mmHg 88%

    Day after tomorrow, 25 October, Wednesday

    Time Temperature Precipitation Wind Pressure Humidity
    00:00 +13°C° 2.9 mm 2 mps 673 mmHg 89%
    01:00 +13°C° 2.9 mm 1 mps 673 mmHg 90%
    02:00 +12°C° 2.9 mm 1 mps 673 mmHg 92%
    03:00 +12°C° 1.2 mm 1 mps 673 mmHg 91%
    04:00 +12°C° 1.2 mm 1 mps 673 mmHg 91%
    05:00 +12°C° 1.2 mm 1 mps 673 mmHg 91%
    06:00 +13°C° 0.5 mm 1 mps 674 mmHg 88%
    07:00 +13°C° 0.5 mm 2 mps 674 mmHg 86%
    08:00 +14°C° 0.5 mm 2 mps 675 mmHg 83%
    09:00 +15°C° 0.5 mm 2 mps 675 mmHg 76%
    10:00 +16°C° 0.5 mm 3 mps 676 mmHg 69%
    11:00 +16°C° 0.5 mm 3 mps 676 mmHg 62%
    12:00 +17°C° 0.4 mm 3 mps 676 mmHg 61%
    13:00 +17°C° 0.4 mm 3 mps 676 mmHg 59%
    14:00 +17°C° 0.4 mm 3 mps 676 mmHg 58%
    15:00 +16°C° 0.7 mm 3 mps 676 mmHg 62%
    16:00 +15°C° 0.7 mm 2 mps 676 mmHg 66%
    17:00 +14°C° 0.7 mm 1 mps 676 mmHg 70%
    18:00 +14°C° 0.5 mm 1 mps 677 mmHg 73%
    19:00 +13°C° 0.5 mm 1 mps 677 mmHg 76%
    20:00 +13°C° 0.5 mm 1 mps 678 mmHg 79%
    21:00 +12°C° 0.3 mm 1 mps 678 mmHg 79%
    22:00 +12°C° 0.3 mm 1 mps 678 mmHg 80%
    23:00 +12°C° 0.3 mm 1 mps 678 mmHg 81%

    26 October, Thursday

    Time Temperature Precipitation Wind Pressure Humidity
    00:00 +12°C° 0.1 mm 1 mps 678 mmHg 82%
    01:00 +11°C° 0.1 mm 1 mps 678 mmHg 83%
    02:00 +10°C° 0.1 mm 0 mps 678 mmHg 83%
    03:00 +10°C° 0 mm 0 mps 678 mmHg 84%
    04:00 +9°C° 0 mm 0 mps 678 mmHg 84%
    05:00 +9°C° 0 mm 0 mps 678 mmHg 85%
    06:00 +10°C° 0 mm 0 mps 679 mmHg 80%
    07:00 +10°C° 0 mm 0 mps 679 mmHg 76%
    08:00 +11°C° 0 mm 0 mps 680 mmHg 71%
    09:00 +13°C° 0 mm 1 mps 680 mmHg 65%
    10:00 +14°C° 0 mm 1 mps 680 mmHg 60%
    11:00 +16°C° 0 mm 1 mps 680 mmHg 54%
    12:00 +16°C° 0 mm 1 mps 680 mmHg 51%
    13:00 +18°C° 0 mm 1 mps 680 mmHg 48%
    14:00 +17°C° 0 mm 2 mps 680 mmHg 46%
    15:00 +16°C° 0 mm 2 mps 680 mmHg 49%
    16:00 +16°C° 0 mm 2 mps 680 mmHg 53%
    17:00 +15°C° 0 mm 2 mps 680 mmHg 56%
    18:00 +14°C° 0 mm 1 mps 680 mmHg 60%
    19:00 +14°C° 0 mm 1 mps 680 mmHg 64%
    20:00 +13°C° 0 mm 1 mps 680 mmHg 68%
    21:00 +13°C° 0 mm 1 mps 680 mmHg 71%
    22:00 +12°C° 0 mm 1 mps 680 mmHg 73%
    23:00 +12°C° 0 mm 1 mps 680 mmHg 76%

    27 October, Friday

    Time Temperature Precipitation Wind Pressure Humidity
    00:00 +11°C° 0 mm 1 mps 680 mmHg 78%
    01:00 +11°C° 0 mm 1 mps 679 mmHg 81%
    02:00 +11°C° 0 mm 1 mps 679 mmHg 83%
    03:00 +10°C° 0 mm 1 mps 679 mmHg 85%
    04:00 +10°C° 0 mm 1 mps 679 mmHg 87%
    05:00 +10°C° 0 mm 1 mps 678 mmHg 89%
    06:00 +11°C° 0 mm 1 mps 679 mmHg 84%
    07:00 +11°C° 0 mm 1 mps 679 mmHg 80%
    08:00 +12°C° 0 mm 1 mps 679 mmHg 76%
    09:00 +14°C° 0 mm 1 mps 679 mmHg 68%
    10:00 +14°C° 0 mm 0 mps 679 mmHg 60%
    11:00 +16°C° 0 mm 0 mps 679 mmHg 52%
    12:00 +16°C° 0 mm 0 mps 679 mmHg 48%
    13:00 +17°C° 0 mm 0 mps 678 mmHg 45%
    14:00 +19°C° 0 mm 1 mps 678 mmHg 41%
    15:00 +19°C° 0 mm 1 mps 677 mmHg 44%
    16:00 +18°C° 0 mm 1 mps 677 mmHg 47%
    17:00 +16°C° 0 mm 1 mps 677 mmHg 51%
    18:00 +15°C° 0 mm 1 mps 677 mmHg 53%
    19:00 +15°C° 0 mm 1 mps 676 mmHg 56%
    20:00 +14°C° 0 mm 1 mps 676 mmHg 59%
    21:00 +13°C° 0 mm 1 mps 676 mmHg 61%
    22:00 +13°C° 0 mm 1 mps 676 mmHg 63%
    23:00 +12°C° 0 mm 1 mps 675 mmHg 66%

    28 October, Saturday

    Time Temperature Precipitation Wind Pressure Humidity
    00:00 +11°C° 0 mm 1 mps 675 mmHg 67%
    01:00 +11°C° 0 mm 1 mps 675 mmHg 68%
    02:00 +11°C° 0 mm 1 mps 674 mmHg 69%
    03:00 +10°C° 0 mm 1 mps 674 mmHg 69%
    04:00 +10°C° 0 mm 1 mps 674 mmHg 69%
    05:00 +10°C° 0 mm 1 mps 674 mmHg 70%
    06:00 +11°C° 0 mm 1 mps 674 mmHg 65%
    07:00 +12°C° 0 mm 1 mps 674 mmHg 61%
    08:00 +13°C° 0 mm 1 mps 675 mmHg 57%
    09:00 +14°C° 0 mm 2 mps 675 mmHg 52%
    10:00 +15°C° 0 mm 2 mps 675 mmHg 48%
    11:00 +17°C° 0 mm 3 mps 675 mmHg 43%
    12:00 +17°C° 0 mm 3 mps 675 mmHg 41%
    13:00 +18°C° 0 mm 3 mps 674 mmHg 39%
    14:00 +18°C° 0 mm 4 mps 674 mmHg 37%
    15:00 +17°C° 0 mm 3 mps 674 mmHg 42%
    16:00 +16°C° 0 mm 3 mps 674 mmHg 47%
    17:00 +15°C° 0 mm 2 mps 674 mmHg 52%
    18:00 +14°C° 0 mm 2 mps 674 mmHg 59%
    19:00 +13°C° 0 mm 2 mps 674 mmHg 66%
    20:00 +12°C° 0 mm 2 mps 674 mmHg 72%
    21:00 +12°C° 0 mm 2 mps 674 mmHg 76%
    22:00 +10°C° 0 mm 2 mps 674 mmHg 80%
    23:00 +10°C° 0 mm 2 mps 674 mmHg 83%

    29 October, Sunday

    Time Temperature Precipitation Wind Pressure Humidity
    00:00 +9°C° 0 mm 2 mps 674 mmHg 85%
    01:00 +9°C° 0 mm 2 mps 674 mmHg 86%
    02:00 +9°C° 0 mm 2 mps 674 mmHg 88%
    03:00 +9°C° 0 mm 2 mps 673 mmHg 88%
    04:00 +9°C° 0 mm 2 mps 673 mmHg 89%
    05:00 +9°C° 0 mm 2 mps 673 mmHg 89%
    06:00 +10°C° 0 mm 3 mps 673 mmHg 87%
    07:00 +10°C° 0 mm 3 mps 673 mmHg 84%
    08:00 +11°C° 0 mm 3 mps 673 mmHg 81%
    09:00 +12°C° 0 mm 4 mps 674 mmHg 77%
    10:00 +13°C° 0 mm 4 mps 674 mmHg 73%
    11:00 +14°C° 0 mm 5 mps 674 mmHg 69%
    12:00 +14°C° 0.1 mm 5 mps 673 mmHg 70%
    13:00 +15°C° 0.1 mm 5 mps 673 mmHg 70%
    14:00 +15°C° 0.1 mm 5 mps 672 mmHg 71%
    15:00 +14°C° 0.4 mm 4 mps 672 mmHg 74%
    16:00 +14°C° 0.4 mm 4 mps 672 mmHg 78%
    17:00 +14°C° 0.4 mm 4 mps 672 mmHg 81%
    18:00 +13°C° 0.2 mm 4 mps 672 mmHg 83%
    19:00 +13°C° 0.2 mm 4 mps 672 mmHg 85%
    20:00 +13°C° 0.2 mm 4 mps 671 mmHg 88%
    21:00 +13°C° 0.1 mm 4 mps 671 mmHg 87%
    22:00 +13°C° 0.1 mm 5 mps 671 mmHg 87%
    23:00 +13°C° 0.1 mm 5 mps 670 mmHg 87%
    Show more